| time (UTC) | temp F | wind direction | speed MPH | gust MPH | rain 1hr in | rain 24hr in | rain mn in | humidity % | barometer mb |
| 20260504232642 | 71 | 203 | 5.0 | 8.0 | 0.00 | 0.00 | 0.00 | 68 | 1003.3 |
| 20260504232139 | 71 | 274 | 6.0 | 7.0 | 0.00 | 0.00 | 0.00 | 67 | 1003.3 |
| 20260504231637 | 71 | 243 | 4.0 | 5.0 | 0.00 | 0.00 | 0.00 | 67 | 1003.4 |
| 20260504231133 | 72 | 309 | 6.0 | 9.0 | 0.00 | 0.00 | 0.00 | 66 | 1003.5 |
| 20260504230629 | 72 | 149 | 5.0 | 7.0 | 0.00 | 0.00 | 0.00 | 65 | 1003.6 |
| 20260504230128 | 72 | 286 | 7.0 | 9.0 | 0.00 | 0.00 | 0.00 | 65 | 1003.7 |
| 20260504225626 | 72 | 185 | 10.0 | 11.0 | 0.00 | 0.00 | 0.00 | 64 | 1003.9 |
| 20260504225121 | 72 | 221 | 7.0 | 10.0 | 0.00 | 0.00 | 0.00 | 66 | 1003.8 |
| 20260504224619 | 72 | 250 | 5.0 | 5.0 | 0.00 | 0.00 | 0.00 | 66 | 1003.7 |
| 20260504224115 | 73 | 162 | 9.0 | 13.0 | 0.00 | 0.00 | 0.00 | 65 | 1003.8 |
| 20260504223612 | 73 | 217 | 7.0 | 9.0 | 0.00 | 0.00 | 0.00 | 63 | 1003.9 |
| 20260504223107 | 73 | 192 | 4.0 | 6.0 | 0.00 | 0.00 | 0.00 | 65 | 1004.0 |
| 20260504222605 | 71 | 205 | 3.0 | 7.0 | 0.00 | 0.00 | 0.00 | 67 | 1004.2 |
| 20260504222102 | 72 | 263 | 6.0 | 7.0 | 0.00 | 0.00 | 0.00 | 66 | 1004.1 |
| 20260504221559 | 73 | 217 | 6.0 | 8.0 | 0.00 | 0.00 | 0.00 | 61 | 1004.1 |
| 20260504221055 | 73 | 250 | 2.0 | 2.0 | 0.00 | 0.00 | 0.00 | 61 | 1004.0 |
| 20260504220552 | 73 | 203 | 7.0 | 9.0 | 0.00 | 0.00 | 0.00 | 60 | 1004.1 |
| 20260504220049 | 74 | 275 | 4.0 | 5.0 | 0.00 | 0.00 | 0.00 | 59 | 1004.2 |
| 20260504215546 | 74 | 216 | 7.0 | 10.0 | 0.00 | 0.00 | 0.00 | 57 | 1004.1 |
| 20260504215043 | 74 | 198 | 6.0 | 7.0 | 0.00 | 0.00 | 0.00 | 57 | 1004.2 |
| 20260504214539 | 72 | 227 | 10.0 | 18.0 | 0.00 | 0.00 | 0.00 | 58 | 1004.4 |
| 20260504214036 | 72 | 239 | 4.0 | 5.0 | 0.00 | 0.00 | 0.00 | 60 | 1004.2 |
| 20260504213532 | 72 | 295 | 4.0 | 6.0 | 0.00 | 0.00 | 0.00 | 58 | 1004.6 |
| 20260504213029 | 74 | 255 | 9.0 | 15.0 | 0.00 | 0.00 | 0.00 | 56 | 1004.5 |
| 20260504212525 | 74 | 251 | 11.0 | 14.0 | 0.00 | 0.00 | 0.00 | 55 | 1004.4 |
| 20260504212023 | 74 | 264 | 2.0 | 2.0 | 0.00 | 0.00 | 0.00 | 56 | 1004.3 |
| 20260504211519 | 75 | 234 | 8.0 | 14.0 | 0.00 | 0.00 | 0.00 | 52 | 1004.4 |
| 20260504211017 | 75 | 268 | 6.0 | 9.0 | 0.00 | 0.00 | 0.00 | 55 | 1004.1 |
| 20260504210514 | 75 | 273 | 4.0 | 7.0 | 0.00 | 0.00 | 0.00 | 54 | 1004.3 |
| 20260504210010 | 75 | 275 | 6.0 | 10.0 | 0.00 | 0.00 | 0.00 | 53 | 1004.4 |
| 20260504205508 | 76 | 268 | 5.0 | 8.0 | 0.00 | 0.00 | 0.00 | 55 | 1004.3 |
| 20260504205006 | 76 | 280 | 2.0 | 3.0 | 0.00 | 0.00 | 0.00 | 58 | 1004.5 |
| 20260504204504 | 75 | 274 | 7.0 | 10.0 | 0.00 | 0.00 | 0.00 | 54 | 1004.2 |
| 20260504204003 | 75 | 311 | 6.0 | 9.0 | 0.00 | 0.00 | 0.00 | 56 | 1004.3 |
| 20260504203500 | 76 | 269 | 3.0 | 6.0 | 0.00 | 0.00 | 0.00 | 54 | 1004.4 |
| 20260504202956 | 76 | 285 | 1.0 | 2.0 | 0.00 | 0.00 | 0.00 | 57 | 1004.4 |
| 20260504202452 | 75 | 224 | 3.0 | 3.0 | 0.00 | 0.00 | 0.00 | 59 | 1004.5 |
| 20260504201950 | 74 | 281 | 3.0 | 5.0 | 0.00 | 0.00 | 0.00 | 58 | 1004.5 |
| 20260504201447 | 75 | 262 | 6.0 | 9.0 | 0.00 | 0.00 | 0.00 | 58 | 1004.3 |
| 20260504200944 | 75 | 168 | 7.0 | 8.0 | 0.00 | 0.00 | 0.00 | 57 | 1004.3 |
| 20260504200441 | 75 | 281 | 11.0 | 15.0 | 0.00 | 0.00 | 0.00 | 57 | 1004.5 |
| 20260504195937 | 75 | 281 | 8.0 | 10.0 | 0.00 | 0.00 | 0.00 | 58 | 1004.6 |
| 20260504195433 | 75 | 286 | 2.0 | 3.0 | 0.00 | 0.00 | 0.00 | 59 | 1004.6 |
| 20260504194930 | 75 | 287 | 4.0 | 6.0 | 0.00 | 0.00 | 0.00 | 57 | 1004.8 |
| 20260504194426 | 75 | 224 | 8.0 | 13.0 | 0.00 | 0.00 | 0.00 | 58 | 1004.6 |
| 20260504193922 | 75 | 273 | 7.0 | 8.0 | 0.00 | 0.00 | 0.00 | 58 | 1004.5 |
| 20260504193419 | 73 | 249 | 3.0 | 5.0 | 0.00 | 0.00 | 0.00 | 61 | 1004.9 |
| 20260504192918 | 74 | 269 | 4.0 | 5.0 | 0.00 | 0.00 | 0.00 | 57 | 1004.9 |
| 20260504192415 | 75 | 209 | 5.0 | 7.0 | 0.00 | 0.00 | 0.00 | 56 | 1004.5 |
| 20260504191914 | 75 | 275 | 3.0 | 5.0 | 0.00 | 0.00 | 0.00 | 58 | 1004.7 |
| 20260504191411 | 74 | 292 | 5.0 | 7.0 | 0.00 | 0.00 | 0.00 | 59 | 1004.9 |
| 20260504190906 | 73 | 240 | 7.0 | 11.0 | 0.00 | 0.00 | 0.00 | 58 | 1004.8 |
| 20260504190402 | 73 | 268 | 7.0 | 14.0 | 0.00 | 0.00 | 0.00 | 59 | 1004.9 |
| 20260504185859 | 74 | 185 | 4.0 | 6.0 | 0.00 | 0.00 | 0.00 | 59 | 1005.0 |
| 20260504185357 | 76 | 201 | 8.0 | 14.0 | 0.00 | 0.00 | 0.00 | 55 | 1004.9 |
| 20260504184853 | 77 | 294 | 6.0 | 8.0 | 0.00 | 0.00 | 0.00 | 55 | 1004.9 |
| 20260504184348 | 76 | 265 | 5.0 | 6.0 | 0.00 | 0.00 | 0.00 | 56 | 1005.1 |
| 20260504183844 | 76 | 283 | 5.0 | 7.0 | 0.00 | 0.00 | 0.00 | 56 | 1005.0 |
| 20260504183342 | 75 | 259 | 3.0 | 6.0 | 0.00 | 0.00 | 0.00 | 57 | 1005.0 |
| 20260504182839 | 75 | 266 | 3.0 | 5.0 | 0.00 | 0.00 | 0.00 | 56 | 1004.9 |
| 20260504182337 | 75 | 307 | 7.0 | 9.0 | 0.00 | 0.00 | 0.00 | 57 | 1005.0 |
| 20260504181833 | 75 | 244 | 5.0 | 7.0 | 0.00 | 0.00 | 0.00 | 58 | 1004.9 |
| 20260504181331 | 75 | 280 | 2.0 | 3.0 | 0.00 | 0.00 | 0.00 | 61 | 1004.8 |
| 20260504180830 | 75 | 239 | 6.0 | 9.0 | 0.00 | 0.00 | 0.00 | 58 | 1005.1 |
| 20260504180328 | 75 | 191 | 7.0 | 11.0 | 0.00 | 0.00 | 0.00 | 58 | 1005.2 |
| 20260504175826 | 75 | 264 | 4.0 | 5.0 | 0.00 | 0.00 | 0.00 | 59 | 1005.1 |
| 20260504175322 | 75 | 195 | 6.0 | 7.0 | 0.00 | 0.00 | 0.00 | 60 | 1005.1 |
| 20260504174821 | 75 | 197 | 9.0 | 14.0 | 0.00 | 0.00 | 0.00 | 60 | 1004.8 |
| 20260504174318 | 75 | 230 | 3.0 | 5.0 | 0.00 | 0.00 | 0.00 | 60 | 1005.1 |
| 20260504173814 | 74 | 249 | 5.0 | 7.0 | 0.00 | 0.00 | 0.00 | 61 | 1005.0 |
| 20260504173311 | 74 | 277 | 5.0 | 6.0 | 0.00 | 0.00 | 0.00 | 62 | 1005.0 |
| 20260504172808 | 74 | 256 | 2.0 | 3.0 | 0.00 | 0.00 | 0.00 | 62 | 1005.2 |
| 20260504172305 | 74 | 295 | 3.0 | 5.0 | 0.00 | 0.00 | 0.00 | 63 | 1005.1 |
| 20260504171800 | 74 | 306 | 3.0 | 5.0 | 0.00 | 0.00 | 0.00 | 62 | 1005.4 |
| 20260504171258 | 73 | 285 | 3.0 | 3.0 | 0.00 | 0.00 | 0.00 | 68 | 1005.2 |
| 20260504170755 | 73 | 212 | 6.0 | 8.0 | 0.00 | 0.00 | 0.00 | 62 | 1005.4 |
| 20260504170252 | 73 | 206 | 3.0 | 3.0 | 0.00 | 0.00 | 0.00 | 64 | 1005.6 |
| 20260504160210 | 71 | 200 | 10.0 | 13.0 | 0.00 | 0.00 | 0.00 | 66 | 1006.3 |
| 20260504151138 | 67 | 249 | 6.0 | 7.0 | 0.00 | 0.00 | 0.00 | 72 | 1007.2 |
| 20260504150636 | 67 | 205 | 4.0 | 5.0 | 0.00 | 0.00 | 0.00 | 73 | 1006.9 |
| 20260504150132 | 66 | 275 | 3.0 | 3.0 | 0.00 | 0.00 | 0.00 | 74 | 1007.1 |
| 20260504141101 | 62 | 261 | 5.0 | 7.0 | 0.00 | 0.00 | 0.00 | 77 | 1007.2 |
| 20260504140557 | 62 | 196 | 4.0 | 5.0 | 0.00 | 0.00 | 0.00 | 78 | 1007.4 |
| 20260504130522 | 58 | 225 | 5.0 | 6.0 | 0.00 | 0.00 | 0.00 | 80 | 1008.0 |
| 20260504110409 | 49 | 249 | 3.0 | 3.0 | 0.00 | 0.00 | 0.00 | 87 | 1008.1 |
| 20260504100326 | 50 | 250 | 1.0 | 2.0 | 0.00 | 0.00 | 0.00 | 86 | 1008.1 |
| 20260504081720 | 50 | 266 | 1.0 | 1.0 | 0.00 | 0.00 | 0.00 | 85 | 1008.4 |
| 20260504081216 | 50 | 247 | 3.0 | 5.0 | 0.00 | 0.00 | 0.00 | 85 | 1008.5 |
| 20260504080712 | 50 | 271 | 2.0 | 2.0 | 0.00 | 0.00 | 0.00 | 85 | 1008.6 |
| 20260504080209 | 49 | 224 | 4.0 | 6.0 | 0.00 | 0.00 | 0.00 | 86 | 1008.7 |
| 20260504070137 | 50 | 231 | 2.0 | 3.0 | 0.00 | 0.00 | 0.00 | 84 | 1009.4 |
| 20260504050525 | 51 | 229 | 3.0 | 3.0 | 0.00 | 0.00 | 0.00 | 83 | 1010.0 |
| 20260504050022 | 51 | 239 | 3.0 | 3.0 | 0.00 | 0.00 | 0.00 | 84 | 1010.1 |
| 20260504045519 | 51 | 161 | 4.0 | 5.0 | 0.00 | 0.00 | 0.00 | 83 | 1010.1 |
| 20260504045015 | 51 | 204 | 4.0 | 5.0 | 0.00 | 0.00 | 0.00 | 84 | 1010.0 |
| 20260504044512 | 51 | 229 | 3.0 | 3.0 | 0.00 | 0.00 | 0.00 | 83 | 1010.1 |
| 20260504044009 | 52 | 232 | 3.0 | 3.0 | 0.00 | 0.00 | 0.00 | 82 | 1010.2 |
| 20260504043506 | 52 | 219 | 4.0 | 5.0 | 0.00 | 0.00 | 0.00 | 82 | 1010.2 |
| 20260504043004 | 52 | 261 | 3.0 | 5.0 | 0.00 | 0.00 | 0.00 | 82 | 1010.2 |
| 20260504042500 | 52 | 229 | 2.0 | 2.0 | 0.00 | 0.00 | 0.00 | 82 | 1010.2 |
| 20260504041957 | 52 | 184 | 7.0 | 9.0 | 0.00 | 0.00 | 0.00 | 82 | 1010.3 |
| 20260504041453 | 52 | 242 | 3.0 | 3.0 | 0.00 | 0.00 | 0.00 | 82 | 1010.4 |
| 20260504040949 | 52 | 219 | 5.0 | 6.0 | 0.00 | 0.00 | 0.00 | 82 | 1010.4 |
| 20260504040447 | 52 | 187 | 3.0 | 3.0 | 0.00 | 0.00 | 0.00 | 81 | 1010.5 |
| 20260504035943 | 52 | 234 | 3.0 | 3.0 | 0.00 | 0.14 | 0.14 | 81 | 1010.5 |
| 20260504035441 | 52 | 270 | 1.0 | 2.0 | 0.00 | 0.14 | 0.14 | 81 | 1010.5 |
| 20260504034937 | 52 | 230 | 3.0 | 5.0 | 0.00 | 0.14 | 0.14 | 80 | 1010.5 |
| 20260504034435 | 52 | 256 | 3.0 | 3.0 | 0.00 | 0.14 | 0.14 | 81 | 1010.7 |
| 20260504033931 | 53 | 262 | 1.0 | 1.0 | 0.00 | 0.14 | 0.14 | 80 | 1010.9 |
| 20260504033429 | 52 | 191 | 4.0 | 6.0 | 0.00 | 0.14 | 0.14 | 80 | 1010.7 |
| 20260504032926 | 53 | 202 | 4.0 | 5.0 | 0.00 | 0.14 | 0.14 | 81 | 1011.1 |
| 20260504032423 | 53 | 170 | 2.0 | 2.0 | 0.00 | 0.14 | 0.14 | 81 | 1010.9 |
| 20260504031919 | 53 | 266 | 2.0 | 3.0 | 0.00 | 0.14 | 0.14 | 80 | 1011.0 |
| 20260504031417 | 53 | 220 | 3.0 | 3.0 | 0.00 | 0.14 | 0.14 | 79 | 1011.0 |
| 20260504030913 | 53 | 234 | 3.0 | 3.0 | 0.00 | 0.14 | 0.14 | 79 | 1011.1 |
| 20260504030410 | 53 | 191 | 5.0 | 7.0 | 0.00 | 0.14 | 0.14 | 79 | 1011.0 |
| 20260504025906 | 53 | 229 | 3.0 | 3.0 | 0.00 | 0.14 | 0.14 | 78 | 1011.0 |
| 20260504025403 | 54 | 218 | 2.0 | 3.0 | 0.00 | 0.14 | 0.14 | 78 | 1011.0 |
| 20260504024900 | 54 | 229 | 4.0 | 6.0 | 0.00 | 0.14 | 0.14 | 78 | 1011.2 |
| 20260504024356 | 54 | 253 | 2.0 | 2.0 | 0.00 | 0.14 | 0.14 | 79 | 1011.2 |
| 20260504023854 | 54 | 248 | 2.0 | 3.0 | 0.00 | 0.14 | 0.14 | 79 | 1011.2 |
| 20260504023350 | 54 | 212 | 3.0 | 3.0 | 0.00 | 0.14 | 0.14 | 80 | 1011.3 |
| 20260504022845 | 53 | 248 | 2.0 | 2.0 | 0.00 | 0.14 | 0.14 | 82 | 1011.0 |
| 20260504022343 | 52 | 233 | 2.0 | 2.0 | 0.00 | 0.14 | 0.14 | 86 | 1011.1 |
| 20260504021839 | 52 | 276 | 0.0 | 1.0 | 0.00 | 0.14 | 0.14 | 87 | 1011.3 |
| 20260504021337 | 52 | 265 | 0.0 | 1.0 | 0.00 | 0.14 | 0.14 | 88 | 1011.2 |
| 20260504020834 | 52 | 274 | 0.0 | 1.0 | 0.00 | 0.14 | 0.14 | 89 | 1011.3 |
| 20260504020331 | 52 | 264 | 0.0 | 1.0 | 0.00 | 0.14 | 0.14 | 89 | 1011.3 |
| 20260504015826 | 52 | 266 | 0.0 | 0.0 | 0.00 | 0.14 | 0.14 | 89 | 1011.3 |
| 20260504015323 | 51 | 271 | 1.0 | 1.0 | 0.00 | 0.14 | 0.14 | 91 | 1011.2 |
| 20260504014819 | 51 | 269 | 1.0 | 1.0 | 0.00 | 0.14 | 0.14 | 92 | 1011.3 |
| 20260504014315 | 51 | 280 | 0.0 | 0.0 | 0.00 | 0.14 | 0.14 | 92 | 1011.4 |
| 20260504013813 | 51 | 276 | 0.0 | 0.0 | 0.00 | 0.14 | 0.14 | 92 | 1011.4 |
| 20260504013311 | 51 | 286 | 0.0 | 0.0 | 0.00 | 0.14 | 0.14 | 91 | 1011.2 |
| 20260504012807 | 51 | 280 | 0.0 | 0.0 | 0.00 | 0.14 | 0.14 | 91 | 1011.4 |
| 20260504012305 | 51 | 275 | 1.0 | 1.0 | 0.00 | 0.14 | 0.14 | 91 | 1011.4 |
| 20260504011802 | 51 | 276 | 0.0 | 1.0 | 0.00 | 0.14 | 0.14 | 91 | 1011.4 |
| 20260504011258 | 51 | 270 | 1.0 | 1.0 | 0.00 | 0.14 | 0.14 | 90 | 1011.4 |
| 20260504010754 | 51 | 244 | 2.0 | 2.0 | 0.00 | 0.14 | 0.14 | 90 | 1011.2 |
| 20260504010250 | 51 | 268 | 1.0 | 1.0 | 0.00 | 0.14 | 0.14 | 90 | 1011.4 |
| 20260504005747 | 52 | 273 | 0.0 | 1.0 | 0.00 | 0.14 | 0.14 | 90 | 1011.4 |
| 20260504005244 | 52 | 262 | 1.0 | 1.0 | 0.00 | 0.14 | 0.14 | 90 | 1011.3 |
| 20260504004742 | 52 | 267 | 1.0 | 2.0 | 0.00 | 0.14 | 0.14 | 89 | 1011.5 |
| 20260504004239 | 52 | 264 | 1.0 | 1.0 | 0.00 | 0.14 | 0.14 | 89 | 1011.7 |
| 20260504003735 | 52 | 264 | 1.0 | 1.0 | 0.00 | 0.14 | 0.14 | 89 | 1011.6 |
| 20260504003232 | 52 | 269 | 1.0 | 1.0 | 0.00 | 0.14 | 0.14 | 88 | 1011.7 |
| 20260504002729 | 52 | 255 | 2.0 | 2.0 | 0.00 | 0.14 | 0.14 | 88 | 1011.5 |
| 20260504002226 | 52 | 271 | 1.0 | 1.0 | 0.00 | 0.14 | 0.14 | 88 | 1011.4 |
| 20260504001724 | 52 | 273 | 1.0 | 1.0 | 0.00 | 0.14 | 0.14 | 86 | 1011.6 |
| 20260504001220 | 52 | 258 | 1.0 | 2.0 | 0.00 | 0.14 | 0.14 | 86 | 1011.7 |
| 20260504000717 | 53 | 252 | 1.0 | 2.0 | 0.00 | 0.14 | 0.14 | 86 | 1011.7 |
| 20260504000214 | 53 | 196 | 4.0 | 5.0 | 0.00 | 0.14 | 0.14 | 86 | 1011.7 |
| 20260503235712 | 53 | 180 | 4.0 | 5.0 | 0.00 | 0.14 | 0.14 | 85 | 1011.8 |
| 20260503235209 | 53 | 271 | 0.0 | 1.0 | 0.00 | 0.14 | 0.14 | 86 | 1011.9 |
| 20260503234707 | 53 | 272 | 0.0 | 1.0 | 0.00 | 0.14 | 0.14 | 85 | 1011.9 |
| 20260503234205 | 53 | 250 | 2.0 | 2.0 | 0.00 | 0.14 | 0.14 | 84 | 1012.0 |
| 20260503233701 | 53 | 242 | 3.0 | 5.0 | 0.00 | 0.14 | 0.14 | 84 | 1011.8 |
| 20260503233157 | 53 | 246 | 2.0 | 2.0 | 0.00 | 0.14 | 0.14 | 84 | 1011.9 |